Le nostre stazioni meteo in Italia

Pubblicità
Il mio iltempo24.it
Firenze, Italia (16171): Temperatura & dewpoint: 19.05.2019 08:00:00 - 25.05.2019 08:00:00 (CEST)Firenze, Italia (16171): reduced air pressure: 19.05.2019 08:00:00 - 25.05.2019 08:00:00 (CEST)
Data & Tempo tt [°C] td [°C] ppp [hPa]
25.05.2019 08:00:00 - - -
25.05.2019 07:00:00 12,4 12,1 1015,6
25.05.2019 06:00:00 11,8 11,0 1015,0
25.05.2019 05:00:00 12,7 11,9 1014,8
25.05.2019 04:00:00 13,6 12,6 1014,6
25.05.2019 03:00:00 14,6 13,6 1014,4
25.05.2019 02:00:00 15,0 13,8 1014,8
25.05.2019 01:00:00 15,5 14,1 1015,0
25.05.2019 00:00:00 16,2 14,5 1014,9
24.05.2019 23:00:00 17,1 14,5 1014,7
24.05.2019 22:00:00 18,4 14,4 1014,3
24.05.2019 21:00:00 19,7 14,4 1013,6
24.05.2019 20:00:00 21,2 15,0 1013,1
24.05.2019 19:00:00 22,5 15,3 1012,9
24.05.2019 18:00:00 22,9 17,7 1013,1
24.05.2019 17:00:00 23,1 17,5 1013,6
24.05.2019 16:00:00 23,3 17,9 1014,1
24.05.2019 15:00:00 22,3 18,0 1014,6
24.05.2019 14:00:00 21,1 17,0 1015,4
24.05.2019 13:00:00 19,6 17,7 1015,9
24.05.2019 12:00:00 18,3 16,7 1016,5
24.05.2019 11:00:00 18,1 16,7 1016,4
24.05.2019 10:00:00 17,3 16,3 1016,3
24.05.2019 09:00:00 16,4 15,7 1016,2
24.05.2019 08:00:00 15,1 14,9 1016,3
24.05.2019 07:00:00 14,6 14,5 1016,3
24.05.2019 06:00:00 14,3 13,9 1016,1
24.05.2019 05:00:00 14,6 14,4 1016,0
24.05.2019 04:00:00 14,2 14,0 1016,2
24.05.2019 03:00:00 14,1 13,4 1016,5
24.05.2019 02:00:00 14,4 13,7 1016,7
24.05.2019 01:00:00 14,9 13,9 1017,0
24.05.2019 00:00:00 15,8 14,6 1016,8
23.05.2019 23:00:00 16,7 15,2 1016,4
23.05.2019 22:00:00 17,7 15,6 1016,1
23.05.2019 21:00:00 18,9 15,1 1015,6
23.05.2019 20:00:00 20,3 15,0 1015,3
23.05.2019 19:00:00 21,6 16,5 1015,1
23.05.2019 18:00:00 22,7 17,3 1015,1
23.05.2019 17:00:00 22,9 17,5 1015,1
23.05.2019 16:00:00 23,7 18,3 1015,5
23.05.2019 15:00:00 23,5 18,1 1016,1
23.05.2019 14:00:00 22,0 17,5 1016,7
23.05.2019 13:00:00 21,8 17,9 1017,0
23.05.2019 12:00:00 19,4 17,8 1017,7
23.05.2019 11:00:00 18,1 17,4 1017,7
23.05.2019 10:00:00 15,9 15,8 1018,0
23.05.2019 09:00:00 14,6 14,5 1018,0
23.05.2019 08:00:00 14,2 14,1 1017,8
23.05.2019 07:00:00 13,3 13,2 1017,7
23.05.2019 06:00:00 13,1 13,0 1017,3
23.05.2019 05:00:00 13,5 13,4 1017,4
23.05.2019 04:00:00 14,1 14,0 1017,3
23.05.2019 03:00:00 13,9 13,8 1017,3
23.05.2019 02:00:00 13,8 13,6 1017,6
23.05.2019 01:00:00 14,3 14,1 1017,2
23.05.2019 00:00:00 14,6 14,4 1017,2
22.05.2019 23:00:00 15,5 15,1 1017,0
22.05.2019 22:00:00 16,3 15,9 1016,4
22.05.2019 21:00:00 16,9 16,5 1015,8
22.05.2019 20:00:00 17,6 17,2 1015,5
22.05.2019 19:00:00 17,5 17,0 1015,5
22.05.2019 18:00:00 18,1 17,2 1015,7
22.05.2019 17:00:00 20,7 17,1 1015,3
22.05.2019 16:00:00 22,6 17,0 1015,0
22.05.2019 15:00:00 22,3 16,7 1015,4
22.05.2019 14:00:00 21,2 17,3 1016,0
22.05.2019 13:00:00 19,8 17,7 1016,4
22.05.2019 12:00:00 18,6 17,2 1016,5
22.05.2019 11:00:00 17,5 16,6 1016,4
22.05.2019 10:00:00 16,1 15,6 1016,3
22.05.2019 09:00:00 14,8 14,6 1016,4
22.05.2019 08:00:00 14,1 13,9 1016,2
22.05.2019 07:00:00 13,8 13,6 1016,0
22.05.2019 06:00:00 13,3 12,9 1015,8
22.05.2019 05:00:00 13,3 12,9 1015,7
22.05.2019 04:00:00 13,5 13,1 1015,6
22.05.2019 03:00:00 13,5 13,1 1015,6
22.05.2019 02:00:00 14,1 13,7 1015,7
22.05.2019 01:00:00 14,0 13,5 1016,1
22.05.2019 00:00:00 14,0 13,0 1016,4
21.05.2019 23:00:00 15,1 13,7 1016,1
21.05.2019 22:00:00 16,1 14,4 1015,6
21.05.2019 21:00:00 17,3 14,7 1014,5
21.05.2019 20:00:00 18,6 15,4 1013,8
21.05.2019 19:00:00 19,5 15,7 1013,3
21.05.2019 18:00:00 19,9 15,7 1013,3
21.05.2019 17:00:00 20,0 16,0 1013,3
21.05.2019 16:00:00 20,9 16,6 1013,2
21.05.2019 15:00:00 20,5 17,8 1013,2
21.05.2019 14:00:00 19,1 17,9 1013,1
21.05.2019 13:00:00 17,1 16,6 1012,9
21.05.2019 12:00:00 16,2 16,1 1012,6
21.05.2019 11:00:00 15,5 15,4 1012,1
21.05.2019 10:00:00 14,5 14,4 1011,9
21.05.2019 09:00:00 14,0 13,9 1011,6
21.05.2019 08:00:00 13,8 13,7 1011,2
21.05.2019 07:00:00 13,4 13,3 1010,8
21.05.2019 06:00:00 13,4 13,3 1010,4
21.05.2019 05:00:00 13,2 13,1 1010,4
21.05.2019 04:00:00 13,3 13,2 1010,6
21.05.2019 03:00:00 13,3 13,2 1010,5
21.05.2019 02:00:00 13,4 13,3 1010,5
21.05.2019 01:00:00 13,7 13,6 1010,7
21.05.2019 00:00:00 13,8 13,7 1010,5
20.05.2019 23:00:00 14,4 14,3 1010,2
20.05.2019 22:00:00 14,3 14,2 1010,0
20.05.2019 21:00:00 14,4 14,2 1009,5
20.05.2019 20:00:00 14,8 14,4 1009,4
20.05.2019 19:00:00 15,4 14,5 1009,0
20.05.2019 18:00:00 16,0 14,1 1009,1
20.05.2019 17:00:00 17,3 12,6 1008,4
20.05.2019 16:00:00 18,5 16,8 1007,7
20.05.2019 15:00:00 17,2 16,3 1008,1
20.05.2019 14:00:00 15,4 14,7 1008,3
20.05.2019 13:00:00 16,3 14,6 1008,5
20.05.2019 12:00:00 17,6 15,9 1007,7
20.05.2019 11:00:00 17,8 15,7 1007,7
20.05.2019 10:00:00 16,0 14,8 1007,6
20.05.2019 09:00:00 14,3 13,9 1007,4
20.05.2019 08:00:00 12,9 12,7 1007,1
20.05.2019 07:00:00 12,3 12,1 1007,0
20.05.2019 06:00:00 12,6 12,6 1006,8
20.05.2019 05:00:00 12,9 12,8 1007,0
20.05.2019 04:00:00 13,1 13,0 1007,0
20.05.2019 03:00:00 13,3 13,1 1007,1
20.05.2019 02:00:00 13,7 13,3 1006,9
20.05.2019 01:00:00 14,1 13,6 1007,0
20.05.2019 00:00:00 14,1 13,4 1007,0
19.05.2019 23:00:00 14,2 13,4 1007,0
19.05.2019 22:00:00 14,9 13,9 1006,8
19.05.2019 21:00:00 15,1 13,9 1006,1
19.05.2019 20:00:00 15,7 14,5 1005,8
19.05.2019 19:00:00 15,6 15,1 1005,2
19.05.2019 18:00:00 16,0 15,6 1005,3
19.05.2019 17:00:00 16,3 15,3 1005,3
19.05.2019 16:00:00 17,4 16,2 1005,0
19.05.2019 15:00:00 16,5 16,0 1004,9
19.05.2019 14:00:00 15,8 15,3 1004,8
19.05.2019 13:00:00 15,7 15,6 1004,6
19.05.2019 12:00:00 15,7 15,6 1004,6
19.05.2019 11:00:00 15,0 14,9 1004,4
19.05.2019 10:00:00 14,5 14,4 1004,4
19.05.2019 09:00:00 14,4 14,3 1004,4
19.05.2019 08:00:00 14,1 14,0 1004,4

tt = Temperatura
td = dewpoint
ppp = reduced air pressure

Stazioni seguenti

WeatherPro
AMSI
MeteoEarth